TimeEST,TemperatureF,Dew PointF,Humidity,Sea Level PressureIn,VisibilityMPH,Wind Direction,Wind SpeedMPH,Gust SpeedMPH,PrecipitationIn,Events,Conditions,WindDirDegrees,DateUTC
12:15 AM,39.2,28.4,65,30.27,10.0,Calm,Calm,-,N/A,,Overcast,0,2013-03-08 05:15:00
12:35 AM,39.2,28.8,66,30.27,10.0,NW,4.6,-,N/A,,Overcast,310,2013-03-08 05:35:00
12:55 AM,38.5,28.8,68,30.26,10.0,NW,8.1,-,N/A,,Overcast,310,2013-03-08 05:55:00
1:15 AM,39.2,28.8,66,30.26,10.0,NW,6.9,-,N/A,,Overcast,320,2013-03-08 06:15:00
1:35 AM,39.4,28.4,65,30.26,10.0,NW,4.6,-,N/A,,Overcast,320,2013-03-08 06:35:00
1:55 AM,39.7,28.2,63,30.25,10.0,NNW,5.8,-,N/A,,Mostly Cloudy,330,2013-03-08 06:55:00
2:15 AM,39.2,28.4,65,30.25,10.0,NNW,5.8,-,N/A,,Scattered Clouds,340,2013-03-08 07:15:00
2:35 AM,38.7,28.6,67,30.24,10.0,Calm,Calm,-,N/A,,Mostly Cloudy,0,2013-03-08 07:35:00
2:55 AM,38.3,28.6,68,30.24,10.0,NW,3.5,-,N/A,,Overcast,320,2013-03-08 07:55:00
3:15 AM,38.5,28.4,67,30.24,10.0,NW,3.5,-,N/A,,Overcast,320,2013-03-08 08:15:00
3:35 AM,38.3,28.4,68,30.24,10.0,NNW,4.6,-,N/A,,Overcast,330,2013-03-08 08:35:00
3:55 AM,38.1,28.4,68,30.24,10.0,NW,5.8,-,N/A,,Overcast,320,2013-03-08 08:55:00
4:15 AM,39.2,28.2,65,30.23,10.0,NNW,6.9,-,N/A,,Overcast,340,2013-03-08 09:15:00
4:35 AM,38.5,28.2,67,30.23,10.0,NW,4.6,-,N/A,,Overcast,310,2013-03-08 09:35:00
4:55 AM,38.8,28.4,66,30.24,10.0,NNW,8.1,-,N/A,,Overcast,330,2013-03-08 09:55:00
5:15 AM,39.6,28.4,64,30.25,10.0,NW,5.8,-,N/A,,Overcast,310,2013-03-08 10:15:00
5:35 AM,40.1,27.9,62,30.25,10.0,NW,4.6,-,N/A,,Overcast,320,2013-03-08 10:35:00
5:55 AM,40.1,27.3,60,30.26,10.0,WNW,3.5,-,N/A,,Overcast,300,2013-03-08 10:55:00
6:15 AM,39.9,27.9,62,30.27,10.0,NW,8.1,-,N/A,,Overcast,320,2013-03-08 11:15:00
6:35 AM,41.0,28.0,60,30.26,10.0,NW,9.2,-,N/A,,Overcast,320,2013-03-08 11:35:00
6:55 AM,40.8,28.0,60,30.26,10.0,NW,6.9,-,N/A,,Overcast,320,2013-03-08 11:55:00
7:15 AM,40.5,28.4,62,30.27,10.0,NW,6.9,-,N/A,,Overcast,320,2013-03-08 12:15:00
7:35 AM,41.2,28.4,60,30.28,10.0,NW,8.1,-,N/A,,Overcast,320,2013-03-08 12:35:00
7:55 AM,43.0,28.4,56,30.28,10.0,NW,10.4,18.4,N/A,,Overcast,320,2013-03-08 12:55:00
8:15 AM,44.2,28.4,54,30.29,10.0,NNW,13.8,17.3,N/A,,Mostly Cloudy,330,2013-03-08 13:15:00
8:35 AM,44.1,27.0,51,30.30,10.0,NNW,13.8,19.6,N/A,,Overcast,330,2013-03-08 13:35:00
8:55 AM,43.9,24.4,46,30.31,10.0,North,16.1,23.0,N/A,,Overcast,350,2013-03-08 13:55:00
9:15 AM,45.5,24.6,44,30.30,10.0,North,17.3,23.0,N/A,,Scattered Clouds,350,2013-03-08 14:15:00
9:35 AM,46.2,23.4,41,30.30,10.0,North,16.1,24.2,N/A,,Clear,350,2013-03-08 14:35:00
9:55 AM,46.6,22.5,39,30.31,10.0,North,20.7,29.9,N/A,,Clear,350,2013-03-08 14:55:00
10:15 AM,47.3,22.8,38,30.30,10.0,NW,19.6,24.2,N/A,,Clear,320,2013-03-08 15:15:00
10:35 AM,48.4,23.2,37,30.30,10.0,NNW,12.7,21.9,N/A,,Clear,340,2013-03-08 15:35:00
10:55 AM,48.7,22.8,36,30.29,10.0,North,12.7,23.0,N/A,,Clear,350,2013-03-08 15:55:00
11:15 AM,49.8,23.4,36,30.29,10.0,NW,16.1,20.7,N/A,,Clear,320,2013-03-08 16:15:00
11:35 AM,50.0,21.6,33,30.29,10.0,North,12.7,24.2,N/A,,Clear,350,2013-03-08 16:35:00
11:55 AM,50.7,22.1,33,30.28,10.0,NNW,10.4,19.6,N/A,,Clear,340,2013-03-08 16:55:00
12:15 PM,52.0,23.2,33,30.28,10.0,North,10.4,21.9,N/A,,Clear,360,2013-03-08 17:15:00
12:35 PM,52.9,23.5,32,30.26,10.0,NW,13.8,19.6,N/A,,Clear,310,2013-03-08 17:35:00
12:55 PM,52.9,22.8,31,30.25,10.0,NNW,16.1,23.0,N/A,,Clear,340,2013-03-08 17:55:00
1:15 PM,54.0,22.6,30,30.24,10.0,North,18.4,23.0,N/A,,Clear,350,2013-03-08 18:15:00
1:35 PM,54.7,23.7,30,30.22,10.0,NNW,12.7,18.4,N/A,,Clear,340,2013-03-08 18:35:00
1:55 PM,55.2,23.0,29,30.22,10.0,NNW,15.0,23.0,N/A,,Clear,330,2013-03-08 18:55:00
2:15 PM,55.4,24.6,30,30.22,10.0,NW,9.2,16.1,N/A,,Clear,310,2013-03-08 19:15:00
2:35 PM,55.4,24.6,30,30.22,10.0,NW,11.5,17.3,N/A,,Clear,320,2013-03-08 19:35:00
2:55 PM,56.3,24.8,30,30.22,10.0,NW,15.0,19.6,N/A,,Clear,320,2013-03-08 19:55:00
3:15 PM,55.9,24.6,30,30.22,10.0,North,10.4,16.1,N/A,,Clear,350,2013-03-08 20:15:00
3:35 PM,56.3,25.0,30,30.22,10.0,NNW,12.7,27.6,N/A,,Clear,340,2013-03-08 20:35:00
3:55 PM,56.1,24.8,30,30.22,10.0,NNW,12.7,17.3,N/A,,Clear,330,2013-03-08 20:55:00
4:15 PM,55.8,24.8,30,30.23,10.0,NNW,16.1,-,N/A,,Clear,340,2013-03-08 21:15:00
4:35 PM,55.4,24.6,30,30.23,10.0,NNW,12.7,-,N/A,,Clear,330,2013-03-08 21:35:00
4:55 PM,54.9,24.8,31,30.24,10.0,NW,15.0,-,N/A,,Clear,310,2013-03-08 21:55:00
5:15 PM,54.5,25.2,32,30.24,10.0,NNW,15.0,19.6,N/A,,Clear,330,2013-03-08 22:15:00
5:35 PM,53.1,24.8,33,30.25,10.0,NNW,11.5,-,N/A,,Clear,330,2013-03-08 22:35:00
5:55 PM,52.2,25.2,35,30.26,10.0,NNW,12.7,17.3,N/A,,Clear,340,2013-03-08 22:55:00
6:15 PM,50.9,25.5,37,30.26,10.0,NNW,10.4,-,N/A,,Clear,330,2013-03-08 23:15:00
6:35 PM,50.0,25.7,39,30.26,10.0,NNW,13.8,20.7,N/A,,Clear,330,2013-03-08 23:35:00
6:55 PM,49.3,26.2,41,30.26,10.0,NNW,10.4,-,N/A,,Clear,330,2013-03-08 23:55:00
7:15 PM,48.4,26.6,43,30.26,10.0,NNW,8.1,-,N/A,,Clear,340,2013-03-09 00:15:00
7:35 PM,48.2,26.6,43,30.26,10.0,North,9.2,-,N/A,,Clear,350,2013-03-09 00:35:00
7:55 PM,47.5,27.3,46,30.25,10.0,NNW,8.1,-,N/A,,Clear,340,2013-03-09 00:55:00
8:15 PM,47.3,26.6,45,30.26,10.0,North,8.1,-,N/A,,Clear,350,2013-03-09 01:15:00
8:35 PM,46.8,26.6,45,30.27,10.0,North,5.8,-,N/A,,Clear,350,2013-03-09 01:35:00
8:55 PM,46.6,26.6,46,30.29,10.0,Calm,Calm,-,N/A,,Clear,0,2013-03-09 01:55:00
9:15 PM,43.9,27.5,53,30.30,10.0,Calm,Calm,-,N/A,,Clear,0,2013-03-09 02:15:00
9:35 PM,42.1,27.9,57,30.30,10.0,North,3.5,-,N/A,,Clear,350,2013-03-09 02:35:00
9:55 PM,42.4,27.7,56,30.31,10.0,North,5.8,-,N/A,,Clear,360,2013-03-09 02:55:00
10:15 PM,43.2,27.5,54,30.31,10.0,NNW,6.9,-,N/A,,Clear,340,2013-03-09 03:15:00
10:35 PM,40.5,28.0,61,30.32,10.0,Calm,Calm,-,N/A,,Clear,0,2013-03-09 03:35:00
10:55 PM,37.9,28.2,68,30.32,10.0,Calm,Calm,-,N/A,,Clear,0,2013-03-09 03:55:00
11:15 PM,39.0,28.0,65,30.33,10.0,Calm,Calm,-,N/A,,Clear,0,2013-03-09 04:15:00
11:35 PM,35.8,28.4,75,30.33,10.0,NNE,3.5,-,N/A,,Clear,30,2013-03-09 04:35:00
11:55 PM,34.3,28.6,79,30.33,10.0,Calm,Calm,-,N/A,,Clear,0,2013-03-09 04:55:00